Home   Weather   Mosbach   Past weeks

Flag for Germany Past Weather in Mosbach, Baden-Württemberg, Germany — Yesterday and Last 2 Weeks

Now
46 °F

Mostly cloudy.


Feels Like: 37 °F
Forecast: 44 / 53 °F
Wind: 29 mph from Southwest

Location: Niederstetten

Current Time: Feb 22, 2017 at 12:10:39 pm

Latest Report: Feb 22, 2017 at 11:20 am


Visibility: N/A

Pressure: 29.89 "Hg

Humidity: 93%

Dew Point: 45 °F

Location of MosbachLocation

Past Weather in Mosbach — Graph

°F

Mosbach Temperature Yesterday

Maximum temperature yesterday: 48 °F (at 4:20 pm)
Minimum temperature yesterday: 43 °F (at 12:20 am)
Average temperature yesterday: 46 °F

High & Low Weather Summary for the Past Weeks

 TemperatureHumidityPressure
High55 °F (Feb 16, 3:20 pm)100% (Feb 7, 10:20 am)30.54 "Hg (Feb 7, 10:20 am)
Low25 °F (Feb 9, 5:20 am)50% (Feb 14, 3:20 pm)29.86 "Hg (Feb 22, 7:21 am)
Average37 °F84%30.20 "Hg
* Reported Feb 7 10:20 am — Feb 22 10:20 am, Mosbach, Weather by CustomWeather, © 2017

Note: Actual official high and low records may vary slightly from our data, if they occured in-between our weather recording intervals... More about our weather records

Advertising

Mosbach Weather History for the Previous 24 Hours

Scroll right to see more
 ConditionsComfort  
Time TempWeatherWind HumidityBarometerVisibility
10:20 am
Wed, Feb 22
46 °FMostly cloudy.32 mph87%29.89 "Hg6 mi
9:20 am46 °FLight rain. Mostly cloudy.29 mph93%29.89 "HgN/A
9:08 am46 °FLight rain. Mostly cloudy.26 mph93%29.89 "HgN/A
8:50 am46 °FDrizzle. Fog.26 mph93%29.89 "Hg3 mi
8:20 am46 °FLight rain. Mostly cloudy.25 mph93%29.89 "HgN/A
8:13 am46 °FLight rain. Mostly cloudy.24 mph93%29.89 "HgN/A
7:36 am46 °FDrizzle. Mostly cloudy.29 mph93%29.86 "Hg4 mi
7:21 am46 °FDrizzle. Mostly cloudy.25 mph100%29.86 "Hg6 mi
6:20 am46 °FLight rain. Low clouds.28 mph100%29.89 "HgN/A
5:20 am46 °FLow clouds.30 mph100%29.89 "HgN/A
4:43 am46 °FLight rain. Low clouds.30 mph100%29.89 "Hg5 mi
4:20 am46 °FLight rain. Fog.28 mph100%29.89 "Hg3 mi
3:20 am46 °FLight rain. Fog.26 mph100%29.92 "Hg3 mi
3:11 am46 °FLight rain. Fog.29 mph100%29.92 "Hg3 mi
2:20 am46 °FLow clouds.24 mph100%29.95 "Hg4 mi
2:00 am46 °FLow clouds.22 mph100%29.95 "Hg5 mi
1:20 am46 °FDrizzle. Low clouds.21 mph100%29.98 "Hg2 mi
12:35 am46 °FDrizzle. Low clouds.18 mph100%29.98 "Hg2 mi
11:20 pm
Tue, Feb 21
46 °FPassing clouds.15 mph93%30.01 "Hg6 mi
10:20 pm46 °FPassing clouds.16 mph93%30.01 "Hg6 mi
9:45 pm46 °FPassing clouds.17 mph93%30.01 "Hg6 mi
9:20 pm46 °FPartly cloudy.17 mph100%30.01 "Hg6 mi
8:20 pm48 °FPassing clouds.12 mph94%30.01 "Hg5 mi
7:20 pm46 °FDrizzle. Fog.7 mph100%30.01 "Hg1 mi
7:07 pm46 °FPassing clouds.8 mph100%30.01 "Hg2 mi
6:38 pm46 °FPartly cloudy.8 mph100%30.01 "Hg5 mi
6:20 pm46 °FDrizzle. Mostly cloudy.7 mph100%30.01 "Hg4 mi
5:50 pm46 °FDrizzle. Fog.5 mph100%30.01 "Hg3 mi
5:41 pm46 °FDrizzle. Fog.5 mph100%30.01 "Hg1 mi
5:20 pm46 °FLight rain. Partly sunny.6 mph100%30.01 "Hg6 mi
5:00 pm46 °FLight rain. Partly sunny.8 mph100%30.01 "Hg6 mi
4:20 pm48 °FLight rain. Partly sunny.10 mph94%29.98 "HgN/A
3:30 pm46 °FDrizzle. Partly sunny.8 mph93%29.98 "HgN/A
2:20 pm46 °FBroken clouds.8 mph93%29.98 "HgN/A
1:20 pm46 °FLight rain. Mostly cloudy.10 mph93%29.98 "Hg6 mi
1:05 pm46 °FDrizzle. Mostly cloudy.14 mph93%29.98 "Hg4 mi
12:37 pm46 °FDrizzle. Fog.12 mph100%29.98 "Hg1 mi
Weather by CustomWeather, © 2017

See weather overviewHow to use our weather pages